GW4021 Weather Reports


time (UTC)temp
C
wind
direction
speed
KPH
gust
KPH
rain 1hr
cm
rain 24hr
cm
rain mn
cm
humidity
%
barometer
mb
20260505034524 9 56 0.0 1.6 0.00 0.10 0.10 87 1011.2
20260505033030 9 279 0.0 1.6 0.00 0.10 0.10 87 1011.3
20260505031515 9 273 0.0 0.0 0.00 0.10 0.10 86 1011.0
20260505030012 9 273 0.0 0.0 0.00 0.10 0.10 85 1011.0
20260505024511 9 273 0.0 0.0 0.00 0.10 0.10 85 1010.7
20260505023009 9 273 0.0 0.0 0.03 0.10 0.10 84 1010.6
20260505021528 10 273 0.0 1.6 0.03 0.10 0.10 83 1010.5
20260505020034 10 273 0.0 1.6 0.05 0.10 0.10 82 1010.6
20260505014532 10 271 0.0 1.6 0.05 0.10 0.10 82 1010.7
20260505013027 10 264 0.0 3.2 0.05 0.08 0.08 81 1010.7
20260505011526 11 269 0.0 3.2 0.05 0.08 0.08 79 1010.8
20260505010014 11 313 0.0 3.2 0.03 0.05 0.05 75 1010.4
20260505004512 11 269 0.0 4.8 0.05 0.05 0.05 73 1010.4
20260505003011 12 277 1.6 6.4 0.03 0.03 0.03 69 1010.5
20260505001527 12 275 0.0 3.2 0.03 0.03 0.03 66 1010.1
20260505000030 13 219 0.0 6.4 0.03 0.03 0.03 65 1010.1
20260504234524 15 130 3.2 25.7 0.00 0.00 0.00 50 1010.1
20260504233029 16 255 0.0 3.2 0.00 0.00 0.00 37 1009.7
20260504231519 17 279 1.6 6.4 0.00 0.00 0.00 35 1009.1
20260504230024 17 26 1.6 9.7 0.00 0.00 0.00 35 1008.6
20260504224517 18 12 1.6 8.0 0.00 0.00 0.00 33 1008.3
20260504223015 19 323 4.8 12.9 0.00 0.00 0.00 33 1008.4
20260504221508 19 310 3.2 11.3 0.00 0.00 0.00 37 1008.5
20260504220026 18 296 3.2 12.9 0.00 0.00 0.00 37 1008.8
20260504214524 16 314 6.4 14.5 0.00 0.00 0.00 36 1009.0
20260504213028 16 275 0.0 11.3 0.00 0.00 0.00 37 1009.1
20260504211533 17 290 4.8 20.9 0.00 0.00 0.00 35 1009.1
20260504210024 18 348 6.4 20.9 0.00 0.00 0.00 33 1009.0
20260504204529 17 321 3.2 17.7 0.00 0.00 0.00 35 1008.9
20260504203023 17 360 8.0 27.4 0.00 0.00 0.00 34 1008.7
20260504201516 17 34 12.9 25.7 0.00 0.00 0.00 33 1008.9
20260504200010 17 254 8.0 19.3 0.00 0.00 0.00 30 1009.3
20260504194524 18 333 3.2 14.5 0.00 0.00 0.00 30 1008.8
20260504193026 19 71 6.4 24.1 0.00 0.00 0.00 27 1008.5
20260504191526 20 5 3.2 19.3 0.00 0.00 0.00 25 1008.3
20260504190019 21 98 1.6 11.3 0.00 0.00 0.00 23 1007.9
20260504184523 21 256 6.4 14.5 0.00 0.00 0.00 22 1007.8
20260504183015 22 311 1.6 14.5 0.00 0.00 0.00 22 1007.8
20260504181514 22 292 3.2 16.1 0.00 0.00 0.00 24 1007.8
20260504180010 22 268 4.8 14.5 0.00 0.00 0.00 24 1007.8
20260504174527 22 284 3.2 11.3 0.00 0.00 0.00 24 1008.0
20260504173026 22 234 3.2 9.7 0.00 0.00 0.00 23 1008.1
20260504171524 22 240 0.0 9.7 0.00 0.00 0.00 23 1008.3
20260504081503 8 339 0.0 1.6 0.00 0.00 0.00 52 1010.4
20260504044526 13 325 1.6 6.4 0.00 0.00 0.00 36 1011.5
20260504043030 14 278 0.0 11.3 0.00 0.00 0.00 34 1011.4
20260504041531 15 73 6.4 14.5 0.00 0.00 0.00 32 1011.6
20260504040019 16 53 8.0 24.1 0.00 0.00 0.00 30 1011.6